www.pogodaiklimat.ru

Погода и климат >> Архив погоды >> Боливия >> San Joaquin


ПОГОДА в San Joaquin

  • Прогноз погоды в San Joaquin
  • Монитор погоды в San Joaquin
  • Климат города

АРХИВ ПОГОДЫ в San Joaquin

Время (UTC), дата Ветер
(напр.,м/с)
 
Видим.   Явления Облачность Т
(С)
Тd
(С)
f
(%)
Тe
(С)
Тes
(С)
Комфортность P
(гПа)
Po
(гПа)
Тmin
(С)
Tmax
(С)
R
(мм)
R24
(мм)
S
(см)
12 13.11 штиль 0 15 км 6/0
[Ci]
+27.1 +22.1 74 +35 +41 очень
душно
1009.5 993.4 +20.4
15 13.11 Ю 3 15 км 6/3 500 м
[Cu med, cong Ci]
+32.8 +22.8 56 +43 +53 опасность
перегрева
1010.7 994.7
18 13.11 Ю 3 15 км 8/5 500 м
[Cu med, cong Ci]
+33.6 +22.9 54 +44 +50 опасность
перегрева
1008.4 992.4
21 13.11 Ю 2 15 км 8/3 500 м
[Cu med, cong Ci]
+32.4 +23.6 60 +44 +46 опасность
перегрева
1005.0 989.1 +34.7
12 14.11 С 2 15 км 8/5 240 м
[Sc Ci]
+25.7 +24.8 95 +36 +39 очень
душно
1008.7 992.6 +21.6
15 14.11 СЗ 4 15 км 8/3 500 м
[Cu med, cong Ci]
+30.6 +25.4 74 +45 +52 опасность
перегрева
1009.6 993.6
18 14.11 СЗ 3 15 км 8/4 500 м
[Cu med, cong Ci]
+32.0 +25.0 67 +46 +54 опасность
перегрева
1006.9 991.0
21 14.11 штиль 0 15 км 6/3 500 м
[Cb cap Ci]
+33.0 +23.7 58 +44 +47 опасность
перегрева
1004.8 989.0 +35.2
12 15.11 С 5 15 км 8/4 450 м
[Sc Ac trans Ci]
+25.5 +24.2 93 +35 +36 очень
душно
1008.5 992.5 +23.4
15 15.11 С 5 15 км 8/6 500 м
[Cu med, cong Ci]
+29.8 +24.8 75 +43 +46 опасность
перегрева
1009.9 994.0
18 15.11 СЗ 5 15 км 9/6 500 м
[Cu med, cong Ci]
+33.0 +24.8 62 +46 +49 опасность
перегрева
1007.0 991.0
21 15.11 СЗ 4 8000 м осадки на расстоянии {гроза} 9/4 500 м
[Cb cap Ci]
+30.0 +24.3 72 +42 +43 опасность
перегрева
1004.9 989.0 +34.7
12 16.11 штиль 0 15 км 8/0
[Ci]
+26.4 +24.0 87 +37 +42 очень
душно
1009.0 992.9 +23.7
15 16.11 СЗ 5 15 км 6/4 500 м
[Cu med, cong Ci]
+32.0 +22.9 59 +42 +48 опасность
перегрева
1009.9 993.9
18 16.11 СЗ 6 15 км 8/8 500 м
[Cb cap]
+33.6 +22.2 51 +42 +44 опасность
перегрева
1007.9 991.9
21 16.11 СЗ 5 15 км 8/3 500 м
[Cu med, cong Ci]
+33.1 +23.6 58 +44 +45 опасность
перегрева
1004.4 988.5 +34.7
12 17.11 С 3 15 км 9/3 500 м
[Cb cap Ac trans]
+27.2 +23.6 81 +37 +39 очень
душно
1007.7 991.6 +23.6
15 17.11 СЗ 6 15 км 9/3 450 м
[Sc Ac trans]
+30.4 +24.0 69 +42 +45 опасность
перегрева
1009.0 993.0
18 17.11 СЗ 7 8000 м осадки на расстоянии 8/6 500 м
[Cb cap Ci]
+32.3 +23.2 59 +43 +45 опасность
перегрева
1005.9 990.0
21 17.11 СЗ 4 8000 м осадки на расстоянии 10/5 500 м
[Cb cap Cs]
+31.2 +22.8 61 +41 +42 опасность
перегрева
1004.3 988.5 +33.9
12 18.11 СЗ 3 15 км 6/1 450 м
[Sc Ci]
+26.0 +22.3 80 +34 +37 очень
душно
1007.1 991.1 +23.5
15 18.11 СЗ 6 15 км 8/1 500 м
[Cu hum Ci]
+30.5 +22.3 62 +40 +45 очень
душно
1007.6 991.7
18 18.11 СЗ 7 15 км 8/6 500 м
[Cu med, cong Ci]
+34.1 +23.4 54 +45 +47 опасность
перегрева
1005.9 990.0
21 18.11 СЗ 2 7000 м гроза, ливневой дождь 9/5 500 м
[Cb cap As trans Ci]
+24.1 +23.8 98 +33 +34 очень
душно
1003.9 988.0 +35.6
12 19.11 СЗ 3 15 км 8/0 1260 м
[Ac trans]
+26.0 +23.2 85 +35 +37 очень
душно
1006.0 990.0 +23.4 14
15 19.11 СЗ 5 15 км 9/4 450 м
[Cb cap Ac trans Cs]
+29.8 +24.0 71 +41 +45 опасность
перегрева
1008.4 992.5
18 19.11 Ю 8 5000 м гроза, ливневой дождь 9/9 240 м
[Cb cap As op]
+22.0 +22.0 100 +29 +29 очень
душно
1008.0 992.0 23
21 19.11 Ю 3 5000 м слабый дождь 10/8 300 м
[Sc As op]
+21.5 +21.5 100 +28 +28 очень
душно
1007.1 991.0 +31.1

 

Местоположение метеостанции San Joaquin (Боливия): широта -13.06 долгота -64.81 высота над уровнем моря 140 м.

В архиве по умолчанию представлена погода в San Joaquin за последнюю неделю. Архивные данные за месяц целиком и за предыдущие месяцы, начиная с января 2011 года, Вы можете получить, выбрав интересующий диапазон дат из раскрывающегося списка и нажав кнопку "Ввод!".

Внимание! Время в таблицах - всемирное. Для получения местного времени необходимо прибавить поправку, которая в San Joaquin равна -4 ч.

Смотрите также архив погоды в соседних городах и на ближайших метеорологических станциях:

Погода в San Ramon (Боливия) (29 км)
Погода в Magdalena (Боливия) (82 км)
Погода в Baures (Боливия) (102 км)
Погода в Santa Ana (Боливия) (103 км)
Погода в Trinidad (Боливия) (195 км)
Погода в San Ignacio De Moxo (Боливия) (223 км)
Погода в Santa Rosa (Боливия) (257 км)
Погода в Riberalta (Боливия) (269 км)
Погода в San Borja (Боливия) (298 км)
Погода в Reyes (Боливия) (311 км)

Пояснения к столбцам:

Ветер - указаны скорость ветра в м/с - средняя за 10 мин, порывы в срок и между сроками (в фигурных скобках) и направление, откуда дует ветер: С - северный, СВ - северо-восточный, В - восточный, ЮВ - юго-восточный, Ю - южный, ЮЗ - юго-западный, З - западный, СЗ - северо-западный.
Видимость - горизонтальная дальность видимости в метрах или километрах. При видимости от 1 до 10 км при отсутствии осадков обычно наблюдается дымка, при ухудшении видимости до 1 км и менее - туман. В сухую погоду видимость может ухудшаться дымом, пылью или мглою.
Явления - указаны атмосферные явления, наблюдавшиеся в срок или в последний час перед сроком; фигурными скобками обозначены явления, наблюдавшиеся между сроками (за 1-3 часа до срока); квадратными скобками обозначены град или гололедные отложения с указанием их диаметра в мм.
Облачность - указаны через наклонную черту общая и нижняя облачность в баллах и высота нижней границы облаков в метрах; квадратными скобками обозначены формы облаков: Ci - перистые, Cs - перисто-слоистые, Cc - перисто-кучевые, Ac - высококучевые, As - высокослоистые, Sc - слоисто-кучевые, Ns - слоисто-дождевые, Cu - кучевые, Cb - кучево-дождевые. Подробнее классификацию облаков см. в Атласе облаков (PDF).
T - Температура воздуха - температура, измеренная на высоте 2 м над землей.
Td - Температура точки росы - температура, при понижении до которой содержащийся в воздухе водяной пар достигнет насыщения.
f - Относительная влажность воздуха - влажноcть воздуха, измеренная на высоте 2 м над землей.
Te - Эффективная температура - температура, которую ощущает одетый по сезону человек в тени. Характеристика душности погоды. При расчете учитывается влияние влажности воздуха и скорости ветра на теплоощущения человека.
Tes - Эффективная температура на солнце - температура, которую ощущает человек, с поправкой на солнечный нагрев. Характеристика знойности погоды. Зависит от высоты солнца над горизонтом, облачности и скорости ветра. Ночью, в пасмурную погоду, а также при ветре 12 м/с и более поправка равна нулю.
P - Атмосферное давление - приведенное к уровню моря атмосферное давление.
Po - Атмосферное давление - измеренное на уровне метеостанции атмосферное давление.
Tmin - Минимальная температура - минимум температуры воздуха на высоте 2 м над землей.
Tmax - Максимальная температура - максимум температуры воздуха на высоте 2 м над землей.
R - Количество осадков - Количество выпавших осадков за период времени, мм. При наведении курсора мыши на число - период времени, за который выпало указанное количество осадков.
R24 - Количество осадков - Количество выпавших осадков за 24 часа, мм.
S - Снежный покров - Высота снежного покрова, см. При наведении курсора мыши на число - состояние снежного покрова и степень покрытия местности в баллах.